Weather History for Lone Rock, WI

Change the Weather History Date:

Tuesday, July 23, 2013

  Actual Average Record
Temperature  
Mean Temperature 66 °F -  
Max Temperature 77 °F 80 °F 97 °F (2012)
Min Temperature 57 °F 59 °F 50 °F (2000)
Cooling Degree Days 1    
Growing Degree Days 16 (Base 50)    
Moisture  
Dew Point 57 °F    
Average Humidity 66    
Maximum Humidity 93    
Minimum Humidity 45    
Precipitation  
Precipitation 0.00 in - - ()
Sea Level Pressure  
Sea Level Pressure 29.87 in    
Wind  
Wind Speed 7 mph (NNW)    
Max Wind Speed 14 mph    
Max Gust Speed 18 mph    
Visibility 10 miles    
Events      
Averages and records for this station are not official NWS values.
T = Trace of Precipitation, MM = Missing Value Source: NWS Daily Summary

Daily Weather History Graph

Daily Weather History Graph

Search for Another Location

Airport:

Trip Planner

Search our weather history database for the weather conditions in past years. The results will help you decide how hot, cold, wet, or windy it might be!

Date:

Astronomy

Jul. 23, 2013 Rise Set
Actual Time 5:42 AM CDT 8:31 PM CDT
Civil Twilight 5:08 AM CDT 9:05 PM CDT
Nautical Twilight 4:26 AM CDT 9:47 PM CDT
Astronomical Twilight 3:37 AM CDT 10:35 PM CDT
Moon 8:55 PM CDT (7/23) 6:54 AM CDT (7/23)
Length of Visible Light 15h 56m
Length of Day
14h 49m
Full, 99% of the Moon is Illuminated
Jul 23
Full
Jul 29
Last Quarter
Aug 6
New
Aug 14
First Quarter
Aug 20
Full

Hourly Weather History & Observations

Time (CDT) Temp. Dew Point Humidity Pressure Visibility Wind Dir Wind Speed Gust Speed Precip Events Conditions
12:56 AM 71.1 °F 66.0 °F 84% 29.73 in 10.0 mi WNW 4.6 mph - N/A   Mostly Cloudy
1:56 AM 69.1 °F 66.0 °F 90% 29.73 in 10.0 mi WSW 3.5 mph - N/A   Clear
2:56 AM 68.0 °F 66.0 °F 93% 29.74 in 10.0 mi West 4.6 mph - N/A   Mostly Cloudy
3:56 AM 69.1 °F 63.0 °F 81% 29.74 in 10.0 mi NW 11.5 mph - N/A   Mostly Cloudy
4:56 AM 66.9 °F 59.0 °F 76% 29.76 in 10.0 mi NNW 9.2 mph 17.3 mph N/A   Partly Cloudy
5:56 AM 64.9 °F 57.0 °F 75% 29.79 in 10.0 mi North 6.9 mph - N/A   Partly Cloudy
6:56 AM 66.0 °F 55.9 °F 70% 29.82 in 10.0 mi NNW 6.9 mph - N/A   Clear
7:56 AM 68.0 °F 55.9 °F 65% 29.85 in 10.0 mi North 5.8 mph - N/A   Clear
8:56 AM 69.1 °F 57.0 °F 65% 29.86 in 10.0 mi NNW 10.4 mph - N/A   Clear
9:56 AM 73.0 °F 55.9 °F 55% 29.86 in 10.0 mi North 8.1 mph - N/A   Clear
10:56 AM 73.9 °F 54.0 °F 50% 29.88 in 10.0 mi North 9.2 mph - N/A   Partly Cloudy
11:56 AM 75.0 °F 54.0 °F 48% 29.89 in 10.0 mi North 8.1 mph 18.4 mph N/A   Mostly Cloudy
12:56 PM 75.0 °F 54.0 °F 48% 29.90 in 10.0 mi North 13.8 mph - N/A   Mostly Cloudy
1:56 PM 75.9 °F 55.0 °F 48% 29.91 in 10.0 mi NNW 10.4 mph - N/A   Scattered Clouds
2:56 PM 75.9 °F 54.0 °F 46% 29.91 in 10.0 mi NNE 13.8 mph 17.3 mph N/A   Clear
3:56 PM 75.9 °F 53.1 °F 45% 29.91 in 10.0 mi North 10.4 mph - N/A   Clear
4:56 PM 75.0 °F 54.0 °F 48% 29.91 in 10.0 mi NNE 9.2 mph 18.4 mph N/A   Partly Cloudy
5:56 PM 73.9 °F 54.0 °F 50% 29.91 in 10.0 mi North 12.7 mph - N/A   Clear
6:56 PM 73.0 °F 53.1 °F 49% 29.91 in 10.0 mi North 12.7 mph - N/A   Clear
7:56 PM 70.0 °F 53.1 °F 55% 29.93 in 10.0 mi NNE 6.9 mph - N/A   Clear
8:56 PM 64.0 °F 55.0 °F 73% 29.95 in 10.0 mi North 4.6 mph - N/A   Clear
9:56 PM 61.0 °F 55.0 °F 81% 29.97 in 10.0 mi Calm Calm - N/A   Clear
10:56 PM 57.9 °F 55.9 °F 93% 29.98 in 10.0 mi Calm Calm - N/A   Clear
11:56 PM 57.0 °F 55.0 °F 93% 29.99 in 10.0 mi Calm Calm - N/A   Clear